RYR121 LEMH-LEBL

Flight info

Callsign RYR121
Flight time 0h 31m
Altitude 18000
Route LUNIK4C LUNIK Q255 OSTUR OSTUR2W
Aircraft B738/M-SDE2E3FGHIRWXY/LB1

Departure

Time 2026-04-14 15:38
Airport Menorca Airport (LEMH)

Arrival

Time 2026-04-14 16:09
Airport Josep Tarradellas Barcelona-El Prat Airport (LEBL)
Time Latitude Longitude Altitude Speed Heading
2026-04-14 15:21 39.86425 4.22391 285 ft 0 kts 99°
2026-04-14 15:29 39.86428 4.22371 289 ft 4 kts 104°
2026-04-14 15:29 39.86437 4.22339 292 ft 4 kts 123°
2026-04-14 15:30 39.86455 4.22317 287 ft 4 kts 169°
2026-04-14 15:30 39.86464 4.22316 287 ft 1 kts 189°
2026-04-14 15:33 39.86463 4.22316 287 ft 1 kts 189°
2026-04-14 15:33 39.86426 4.22309 287 ft 10 kts 190°
2026-04-14 15:33 39.86343 4.22290 287 ft 13 kts 188°
2026-04-14 15:34 39.86253 4.22273 287 ft 13 kts 191°
2026-04-14 15:34 39.86185 4.22206 289 ft 14 kts 271°
2026-04-14 15:34 39.86176 4.22090 297 ft 7 kts 220°
2026-04-14 15:34 39.86115 4.22073 294 ft 13 kts 180°
2026-04-14 15:35 39.86028 4.22062 296 ft 12 kts 193°
2026-04-14 15:35 39.85944 4.22045 295 ft 13 kts 181°
2026-04-14 15:35 39.85846 4.22026 297 ft 18 kts 191°
2026-04-14 15:35 39.85694 4.21988 289 ft 26 kts 189°
2026-04-14 15:36 39.85499 4.21947 284 ft 30 kts 189°
2026-04-14 15:36 39.85298 4.21907 280 ft 28 kts 188°
2026-04-14 15:36 39.85127 4.21824 282 ft 27 kts 249°
2026-04-14 15:36 39.85177 4.21644 285 ft 13 kts 343°
2026-04-14 15:37 39.85211 4.21647 285 ft 0 kts 10°
2026-04-14 15:37 39.85438 4.21693 286 ft 75 kts 10°
2026-04-14 15:37 39.86224 4.21848 304 ft 150 kts
2026-04-14 15:38 39.87315 4.22042 1035 ft 162 kts
2026-04-14 15:38 39.88427 4.22325 2136 ft 164 kts
2026-04-14 15:38 39.89545 4.22577 3208 ft 165 kts
2026-04-14 15:38 39.90712 4.22842 3915 ft 178 kts
2026-04-14 15:39 39.91958 4.23091 4704 ft 181 kts
2026-04-14 15:39 39.93213 4.23342 5398 ft 187 kts
2026-04-14 15:39 39.94548 4.23611 5884 ft 200 kts
2026-04-14 15:39 39.95978 4.23904 6405 ft 213 kts
2026-04-14 15:40 39.97448 4.24128 7186 ft 209 kts
2026-04-14 15:40 39.98945 4.24162 7663 ft 228 kts 352°
2026-04-14 15:40 40.00466 4.23297 7961 ft 256 kts 320°
2026-04-14 15:40 40.01433 4.21275 8565 ft 275 kts 286°
2026-04-14 15:41 40.01524 4.18753 9347 ft 287 kts 265°
2026-04-14 15:41 40.01308 4.16153 10110 ft 290 kts 280°
2026-04-14 15:41 40.02013 4.13672 10543 ft 302 kts 307°
2026-04-14 15:41 40.03363 4.11445 10740 ft 325 kts 313°
2026-04-14 15:42 40.04872 4.09122 11150 ft 341 kts 312°
2026-04-14 15:42 40.06402 4.06702 11861 ft 346 kts 311°
2026-04-14 15:42 40.07909 4.04226 12646 ft 350 kts 310°
2026-04-14 15:42 40.09411 4.01679 13374 ft 355 kts 309°
2026-04-14 15:43 40.10903 3.99086 14068 ft 360 kts 309°
2026-04-14 15:43 40.12392 3.96458 14754 ft 363 kts 309°
2026-04-14 15:43 40.13884 3.93798 15501 ft 364 kts 309°
2026-04-14 15:43 40.15385 3.91108 16387 ft 360 kts 309°
2026-04-14 15:44 40.16842 3.88486 17334 ft 356 kts 309°
2026-04-14 15:44 40.18289 3.85882 17787 ft 354 kts 309°
2026-04-14 15:44 40.19740 3.83266 17959 ft 357 kts 309°
2026-04-14 15:44 40.21194 3.80647 18074 ft 356 kts 309°
2026-04-14 15:45 40.22648 3.78020 18082 ft 355 kts 309°
2026-04-14 15:45 40.24096 3.75403 18084 ft 354 kts 309°
2026-04-14 15:45 40.25533 3.72805 18080 ft 353 kts 309°
2026-04-14 15:45 40.26970 3.70204 18081 ft 353 kts 309°
2026-04-14 15:46 40.28408 3.67600 18081 ft 353 kts 309°
2026-04-14 15:46 40.29841 3.65002 18080 ft 353 kts 309°
2026-04-14 15:46 40.31296 3.62362 18080 ft 353 kts 309°
2026-04-14 15:46 40.32714 3.59788 18081 ft 353 kts 309°
2026-04-14 15:47 40.34151 3.57175 18085 ft 354 kts 309°
2026-04-14 15:47 40.35600 3.54538 18080 ft 354 kts 309°
2026-04-14 15:47 40.37030 3.51933 18070 ft 348 kts 309°
2026-04-14 15:47 40.38423 3.49388 18064 ft 335 kts 309°
2026-04-14 15:48 40.39761 3.46947 18061 ft 326 kts 309°
2026-04-14 15:48 40.41075 3.44552 18073 ft 324 kts 309°
2026-04-14 15:48 40.42392 3.42151 18093 ft 325 kts 309°
2026-04-14 15:48 40.43722 3.39726 18091 ft 325 kts 310°
2026-04-14 15:49 40.45119 3.37441 18001 ft 315 kts 314°
2026-04-14 15:49 40.46081 3.36027 17883 ft 309 kts 315°
2026-04-14 15:49 40.48027 3.33262 17172 ft 314 kts 316°
2026-04-14 15:49 40.49479 3.31197 17238 ft 304 kts 316°
2026-04-14 15:50 40.50927 3.29124 17236 ft 314 kts 315°
2026-04-14 15:50 40.51920 3.27696 17236 ft 319 kts 315°
2026-04-14 15:50 40.53421 3.25524 17215 ft 322 kts 315°
2026-04-14 15:50 40.54930 3.23327 17190 ft 320 kts 315°
2026-04-14 15:51 40.56413 3.21164 17175 ft 318 kts 315°
2026-04-14 15:51 40.57887 3.19012 17169 ft 317 kts 315°
2026-04-14 15:51 40.59369 3.16849 17127 ft 318 kts 315°
2026-04-14 15:51 40.60856 3.14679 16846 ft 322 kts 315°
2026-04-14 15:52 40.62365 3.12474 16589 ft 321 kts 315°
2026-04-14 15:52 40.63844 3.10316 16331 ft 318 kts 315°
2026-04-14 15:52 40.65324 3.08153 16070 ft 316 kts 315°
2026-04-14 15:52 40.66804 3.05989 15823 ft 315 kts 315°
2026-04-14 15:53 40.68257 3.03862 15570 ft 314 kts 315°
2026-04-14 15:53 40.69724 3.01713 15327 ft 313 kts 315°
2026-04-14 15:53 40.71168 2.99594 15081 ft 312 kts 315°
2026-04-14 15:53 40.72614 2.97472 14838 ft 311 kts 315°
2026-04-14 15:54 40.75509 2.93221 14355 ft 309 kts 315°
2026-04-14 15:54 40.76947 2.91109 14116 ft 309 kts 315°
2026-04-14 15:54 40.78526 2.89273 13862 ft 305 kts 332°
2026-04-14 15:55 40.80466 2.88154 13621 ft 301 kts 341°
2026-04-14 15:55 40.82424 2.87216 13369 ft 298 kts 342°
2026-04-14 15:55 40.84375 2.86300 13071 ft 295 kts 342°
2026-04-14 15:55 40.86302 2.85391 12742 ft 293 kts 342°
2026-04-14 15:56 40.88217 2.84478 12426 ft 291 kts 341°
2026-04-14 15:56 40.90104 2.83571 12103 ft 289 kts 341°
2026-04-14 15:56 40.91988 2.82660 11795 ft 287 kts 341°
2026-04-14 15:56 40.93841 2.81760 11481 ft 286 kts 341°
2026-04-14 15:57 40.95713 2.80849 11166 ft 284 kts 341°
2026-04-14 15:57 40.97576 2.79940 10848 ft 283 kts 341°
2026-04-14 15:57 40.99408 2.79046 10539 ft 283 kts 341°
2026-04-14 15:57 41.01238 2.78153 10364 ft 276 kts 341°
2026-04-14 15:58 41.03007 2.77289 10242 ft 269 kts 341°
2026-04-14 15:58 41.04755 2.76436 10096 ft 262 kts 341°
2026-04-14 15:58 41.06466 2.75600 9855 ft 262 kts 341°
2026-04-14 15:58 41.08191 2.74758 9615 ft 265 kts 341°
2026-04-14 15:59 41.09922 2.73913 9360 ft 267 kts 341°
2026-04-14 15:59 41.11653 2.73065 9104 ft 265 kts 341°
2026-04-14 15:59 41.13369 2.72224 8845 ft 263 kts 341°
2026-04-14 15:59 41.15080 2.71385 8601 ft 260 kts 341°
2026-04-14 16:00 41.16771 2.70554 8348 ft 258 kts 341°
2026-04-14 16:00 41.18441 2.69735 8112 ft 255 kts 341°
2026-04-14 16:00 41.20104 2.68918 7872 ft 252 kts 341°
2026-04-14 16:00 41.21750 2.68111 7641 ft 250 kts 341°
2026-04-14 16:01 41.23364 2.67319 7411 ft 248 kts 341°
2026-04-14 16:01 41.24918 2.66387 7158 ft 248 kts 326°
2026-04-14 16:01 41.26099 2.64709 6946 ft 250 kts 305°
2026-04-14 16:01 41.26918 2.62669 6727 ft 249 kts 300°
2026-04-14 16:02 41.27684 2.60602 6487 ft 249 kts 300°
2026-04-14 16:02 41.28449 2.58522 6233 ft 249 kts 300°
2026-04-14 16:02 41.29212 2.56452 5989 ft 249 kts 299°
2026-04-14 16:02 41.29973 2.54399 5745 ft 249 kts 299°
2026-04-14 16:03 41.30747 2.52313 5475 ft 250 kts 299°
2026-04-14 16:03 41.31518 2.50243 5222 ft 251 kts 298°
2026-04-14 16:03 41.32298 2.48149 4977 ft 250 kts 298°
2026-04-14 16:03 41.33068 2.46083 4729 ft 249 kts 298°
2026-04-14 16:04 41.33835 2.44026 4492 ft 248 kts 298°
2026-04-14 16:04 41.34601 2.41970 4246 ft 246 kts 298°
2026-04-14 16:04 41.35353 2.39953 4005 ft 243 kts 297°
2026-04-14 16:04 41.36103 2.37943 3780 ft 239 kts 297°
2026-04-14 16:05 41.36835 2.35978 3556 ft 237 kts 296°
2026-04-14 16:05 41.37536 2.33998 3323 ft 234 kts 287°
2026-04-14 16:05 41.37554 2.31898 3171 ft 225 kts 257°
2026-04-14 16:05 41.37133 2.29936 3027 ft 214 kts 253°
2026-04-14 16:06 41.36641 2.28115 2847 ft 206 kts 248°
2026-04-14 16:06 41.36068 2.26379 2616 ft 202 kts 245°
2026-04-14 16:06 41.35491 2.24705 2353 ft 198 kts 245°
2026-04-14 16:06 41.34919 2.23043 2090 ft 194 kts 244°
2026-04-14 16:07 41.34368 2.21440 1825 ft 189 kts 243°
2026-04-14 16:07 41.33831 2.19875 1566 ft 182 kts 243°
2026-04-14 16:07 41.33314 2.18369 1354 ft 175 kts 244°
2026-04-14 16:07 41.32822 2.16935 1117 ft 169 kts 243°
2026-04-14 16:08 41.32353 2.15566 925 ft 155 kts 242°
2026-04-14 16:08 41.31912 2.14276 709 ft 155 kts 245°
2026-04-14 16:08 41.31482 2.12957 452 ft 155 kts 242°
2026-04-14 16:08 41.31024 2.11671 234 ft 154 kts 242°
2026-04-14 16:09 41.30582 2.10379 67 ft 152 kts 242°
2026-04-14 16:09 41.30142 2.09090 23 ft 153 kts 243°
2026-04-14 16:09 41.29710 2.07853 16 ft 136 kts 243°
2026-04-14 16:09 41.29428 2.06970 16 ft 40 kts 245°
2026-04-14 16:10 41.29412 2.06927 14 ft 0 kts 241°
2026-04-14 16:10 41.29409 2.06920 14 ft 2 kts 239°